ARSAT 2

Last updated on Thu Oct 16 2025 00:02:48 GMT+0000 (Coordinated Universal Time)

1 40941U 15054B 25288.54076682 -.00000239 00000+0 00000+0 0 9999 2 40941 0.0166 297.8957 0002145 258.5211 301.6075 1.00271919 36850
UTC large
Height (km)
Speed (km/s)
/
Latitude / Longitude
Inclination (degrees)
Orbital Period (minutes)
Azimuth
Elevation
Range (km)
Doppler Factor

Next 0 passes for location: London (51.5072 / 0.1276)

Sorry there are no passes over London.